{"data":{"norad_id":59529,"intl_designator":"2024-073U","name":"STARLINK-31513","alt_names":[],"object_type":"PAYLOAD","status":"ACTIVE","operator":null,"country":"US","launch_date":"2024-04-17","launch_site_code":"AFETR","launch_vehicle":null,"mission":null,"orbit_class":"UNKNOWN","rcs_meters":null,"size_class":null,"mass_kg":null,"dimensions":null,"purposes":["comms"],"wikipedia_slug":null,"has_3d_model":false,"image_url":null,"decayed_at":null,"tle_current":{"epoch":"2026-05-24T17:46:23.647008Z","epoch_age_seconds":94131,"freshness":"FRESH","line1":"1 59529U 24073U   26144.74055147  .00001249  00000+0  54918-4 0  9992","line2":"2 59529  43.0034 245.2831 0001603 273.6707  86.3962 15.27581684117845","mean_motion":15.27581684,"eccentricity":0.0001603,"inclination_deg":43.0034,"raan_deg":245.2831,"arg_perigee_deg":273.6707,"mean_anomaly_deg":86.3962,"bstar":5.4918e-5,"rev_number":11784,"period_min":94.266644794361,"perigee_km":481.94420621959,"apogee_km":484.14390086535,"semimajor_km":6861.1810535425,"source":"CELESTRAK","updated_at":"2026-05-25T13:38:18.977105Z"}}}